Simultaneous Nadir Overpasses (SNOs) Predictions

Prediction of SNOs between METOP-A and TERRA Satellite Orbit:

Table of predicted SNOs for the next 14.0 days since TLE Epoch: 1/12/2018
Index Date (METOP-A) Time (METOP-A) Lat,Lon (METOP-A) SZA (METOP-A ) Date (TERRA) Time (TERRA) Lat,Lon (TERRA) SZA (TERRA ) Distance(km) Time Diff (sec)
1 01/13/2018 23:14:58 81.38,-120.18 105.25 01/13/2018 23:15:51 81.38,-120.06 105.29 2.07 53
2 01/14/2018 00:05:37 -81.39, 47.90 74.68 01/14/2018 00:05:17 -81.39, 47.83 74.69 1.24 20
3 01/16/2018 18:49:16 81.39, -53.44 104.75 01/16/2018 18:50:06 81.39, -53.50 104.76 1.12 50
4 01/16/2018 19:39:57 -81.39, 113.85 75.27 01/16/2018 19:39:33 -81.38, 114.03 75.27 2.96 24
5 01/19/2018 14:23:35 81.39, 12.90 104.14 01/19/2018 14:24:21 81.39, 13.07 104.19 3.03 46
6 01/19/2018 15:14:15 -81.39,-179.42 75.83 01/19/2018 15:13:48 -81.39,-179.38 75.84 0.76 27
7 01/22/2018 09:57:53 81.39, 79.22 103.49 01/22/2018 09:58:36 81.38, 79.27 103.52 0.98 43
8 01/22/2018 10:48:33 -81.39,-113.10 76.48 01/22/2018 10:48:03 -81.38,-113.14 76.50 1.13 30
9 01/25/2018 05:32:11 81.39, 145.92 102.84 01/25/2018 05:32:51 81.39, 145.88 102.86 0.78 40




NCC Satellite Simultaneous Nadir Overpasses (SNOs) Prediction Service
